FDX220 KMEM-KMIA

Flight info

Callsign FDX220
Flight time 1h 50m
Altitude 35000
Route BBKNG7 KERMI MGMRY ACORI FROGZ5
Aircraft B77L/H-SDE1E2E3FGHIJ2J3J4J5M1RWXY/LB1D1

Departure

Time 2026-05-06 00:20
Airport Memphis International Airport (KMEM)

Arrival

Time 2026-05-06 02:11
Airport Miami International Airport (KMIA)
Time Latitude Longitude Altitude Speed Heading
2026-05-05 23:59 35.06634 -89.98078 331 ft 0 kts
2026-05-06 00:12 35.06629 -89.98078 330 ft 4 kts
2026-05-06 00:12 35.06603 -89.98085 330 ft 4 kts 34°
2026-05-06 00:12 35.06587 -89.98108 330 ft 4 kts 75°
2026-05-06 00:13 35.06585 -89.98138 330 ft 2 kts 92°
2026-05-06 00:13 35.06585 -89.98140 331 ft 2 kts 92°
2026-05-06 00:16 35.06584 -89.98126 331 ft 10 kts 92°
2026-05-06 00:16 35.06580 -89.97987 334 ft 20 kts 92°
2026-05-06 00:17 35.06557 -89.97821 330 ft 20 kts 134°
2026-05-06 00:17 35.06425 -89.97790 332 ft 20 kts 181°
2026-05-06 00:17 35.06284 -89.97790 332 ft 20 kts 179°
2026-05-06 00:17 35.06144 -89.97787 332 ft 20 kts 179°
2026-05-06 00:18 35.06003 -89.97785 332 ft 20 kts 180°
2026-05-06 00:18 35.05863 -89.97784 334 ft 20 kts 179°
2026-05-06 00:18 35.05722 -89.97784 333 ft 20 kts 180°
2026-05-06 00:18 35.05582 -89.97783 332 ft 20 kts 179°
2026-05-06 00:19 35.05476 -89.97767 331 ft 13 kts 145°
2026-05-06 00:19 35.05437 -89.97659 327 ft 17 kts 116°
2026-05-06 00:19 35.05314 -89.97613 327 ft 30 kts 178°
2026-05-06 00:19 35.04892 -89.97607 325 ft 96 kts 179°
2026-05-06 00:20 35.04015 -89.97585 328 ft 154 kts 177°
2026-05-06 00:20 35.02836 -89.97551 542 ft 177 kts 183°
2026-05-06 00:20 35.01507 -89.97584 868 ft 198 kts 182°
2026-05-06 00:20 35.00095 -89.97577 1404 ft 210 kts 179°
2026-05-06 00:21 34.98631 -89.97409 1987 ft 216 kts 166°
2026-05-06 00:21 34.97169 -89.96729 2407 ft 238 kts 159°
2026-05-06 00:21 34.95569 -89.95950 2933 ft 252 kts 160°
2026-05-06 00:21 34.94049 -89.94840 3555 ft 263 kts 135°
2026-05-06 00:22 34.93110 -89.92903 4362 ft 272 kts 110°
2026-05-06 00:22 34.92823 -89.90617 5199 ft 276 kts 95°
2026-05-06 00:22 34.92729 -89.88260 5949 ft 281 kts 95°
2026-05-06 00:22 34.92627 -89.85865 6766 ft 284 kts 95°
2026-05-06 00:23 34.92522 -89.83452 7568 ft 287 kts 95°
2026-05-06 00:23 34.92412 -89.81013 8335 ft 290 kts 95°
2026-05-06 00:23 34.92297 -89.78545 9077 ft 294 kts 95°
2026-05-06 00:23 34.92179 -89.76048 9828 ft 297 kts 95°
2026-05-06 00:24 34.92057 -89.73503 10354 ft 311 kts 95°
2026-05-06 00:24 34.91919 -89.70707 10219 ft 347 kts 95°
2026-05-06 00:24 34.91769 -89.67650 10200 ft 372 kts 95°
2026-05-06 00:24 34.91617 -89.64490 10161 ft 375 kts 95°
2026-05-06 00:25 34.91542 -89.61306 10115 ft 377 kts 92°
2026-05-06 00:25 34.91544 -89.58119 10127 ft 377 kts 91°
2026-05-06 00:25 34.91564 -89.54903 10762 ft 382 kts 91°
2026-05-06 00:25 34.91580 -89.51652 11687 ft 384 kts 91°
2026-05-06 00:26 34.91588 -89.48390 12636 ft 386 kts 91°
2026-05-06 00:26 34.91589 -89.45099 13486 ft 391 kts 91°
2026-05-06 00:26 34.91584 -89.41766 14287 ft 397 kts 92°
2026-05-06 00:26 34.91577 -89.38387 15058 ft 402 kts 92°
2026-05-06 00:27 34.91568 -89.34960 15832 ft 406 kts 92°
2026-05-06 00:27 34.91558 -89.31505 16580 ft 411 kts 92°
2026-05-06 00:27 34.91548 -89.28006 17317 ft 415 kts 92°
2026-05-06 00:27 34.91535 -89.24474 18024 ft 419 kts 92°
2026-05-06 00:28 34.91488 -89.20901 18694 ft 421 kts 96°
2026-05-06 00:28 34.91027 -89.17366 19272 ft 426 kts 104°
2026-05-06 00:28 34.90322 -89.13847 19898 ft 430 kts 105°
2026-05-06 00:28 34.89629 -89.10288 20544 ft 434 kts 104°
2026-05-06 00:29 34.88973 -89.06685 21167 ft 438 kts 104°
2026-05-06 00:29 34.88335 -89.03043 21782 ft 442 kts 103°
2026-05-06 00:29 34.87706 -88.99371 22358 ft 446 kts 103°
2026-05-06 00:29 34.87073 -88.95656 22907 ft 449 kts 103°
2026-05-06 00:30 34.86437 -88.91917 23456 ft 453 kts 103°
2026-05-06 00:30 34.85793 -88.88146 23973 ft 457 kts 103°
2026-05-06 00:30 34.85141 -88.84338 24477 ft 461 kts 103°
2026-05-06 00:30 34.84484 -88.80510 24970 ft 464 kts 103°
2026-05-06 00:31 34.83819 -88.76651 25458 ft 468 kts 103°
2026-05-06 00:31 34.83147 -88.72766 25932 ft 471 kts 103°
2026-05-06 00:31 34.82479 -88.68904 26387 ft 474 kts 103°
2026-05-06 00:31 34.81795 -88.64960 26842 ft 478 kts 103°
2026-05-06 00:32 34.81106 -88.60998 27281 ft 481 kts 103°
2026-05-06 00:32 34.80410 -88.56999 27709 ft 484 kts 103°
2026-05-06 00:32 34.79709 -88.52982 28126 ft 487 kts 103°
2026-05-06 00:32 34.79002 -88.48944 28532 ft 490 kts 103°
2026-05-06 00:33 34.78288 -88.44869 28927 ft 493 kts 103°
2026-05-06 00:33 34.77570 -88.40775 29302 ft 496 kts 103°
2026-05-06 00:33 34.76847 -88.36670 29660 ft 499 kts 103°
2026-05-06 00:33 34.76118 -88.32534 30031 ft 501 kts 103°
2026-05-06 00:34 34.75386 -88.28386 30484 ft 501 kts 103°
2026-05-06 00:34 34.74657 -88.24260 31008 ft 499 kts 103°
2026-05-06 00:34 34.73880 -88.20170 31482 ft 494 kts 108°
2026-05-06 00:34 34.72444 -88.16392 31737 ft 494 kts 126°
2026-05-06 00:35 34.70206 -88.13263 32100 ft 491 kts 141°
2026-05-06 00:35 34.67414 -88.10933 32522 ft 485 kts 150°
2026-05-06 00:35 34.64510 -88.08840 32868 ft 486 kts 150°
2026-05-06 00:35 34.61603 -88.06726 33283 ft 486 kts 150°
2026-05-06 00:36 34.58719 -88.04607 33725 ft 484 kts 149°
2026-05-06 00:36 34.55844 -88.02472 34172 ft 483 kts 149°
2026-05-06 00:36 34.52987 -88.00335 34578 ft 482 kts 149°
2026-05-06 00:36 34.50138 -87.98195 34915 ft 483 kts 149°
2026-05-06 00:37 34.47275 -87.96042 34888 ft 487 kts 149°
2026-05-06 00:37 34.41538 -87.91728 34889 ft 483 kts 149°
2026-05-06 00:38 34.35848 -87.87457 34898 ft 480 kts 149°
2026-05-06 00:38 34.30177 -87.83210 34899 ft 479 kts 149°
2026-05-06 00:39 34.24517 -87.78981 34901 ft 479 kts 149°
2026-05-06 00:39 34.18842 -87.74746 34899 ft 480 kts 149°
2026-05-06 00:40 34.13161 -87.70513 34899 ft 481 kts 149°
2026-05-06 00:40 34.07463 -87.66275 34901 ft 481 kts 149°
2026-05-06 00:41 34.01753 -87.62034 34898 ft 482 kts 149°
2026-05-06 00:41 33.96034 -87.57794 34899 ft 483 kts 149°
2026-05-06 00:42 33.90312 -87.53558 34900 ft 483 kts 149°
2026-05-06 00:42 33.84585 -87.49325 34897 ft 483 kts 149°
2026-05-06 00:43 33.78856 -87.45097 34899 ft 483 kts 149°
2026-05-06 00:43 33.73133 -87.40881 34895 ft 483 kts 149°
2026-05-06 00:44 33.67406 -87.36668 34900 ft 482 kts 149°
2026-05-06 00:44 33.61687 -87.32468 34896 ft 482 kts 149°
2026-05-06 00:45 33.55968 -87.28274 34899 ft 482 kts 149°
2026-05-06 00:45 33.50251 -87.24088 34897 ft 482 kts 149°
2026-05-06 00:46 33.44568 -87.19934 34898 ft 481 kts 149°
2026-05-06 00:46 33.38856 -87.15765 34898 ft 481 kts 149°
2026-05-06 00:47 33.33136 -87.11597 34898 ft 481 kts 149°
2026-05-06 00:47 33.27415 -87.07435 34900 ft 481 kts 149°
2026-05-06 00:48 33.21692 -87.03277 34898 ft 481 kts 150°
2026-05-06 00:48 33.15964 -86.99122 34899 ft 482 kts 150°
2026-05-06 00:49 33.10235 -86.94974 34898 ft 482 kts 150°
2026-05-06 00:49 33.04506 -86.90831 34898 ft 482 kts 150°
2026-05-06 00:50 32.98762 -86.86684 34898 ft 482 kts 150°
2026-05-06 00:50 32.93999 -86.83250 34899 ft 482 kts 150°
2026-05-06 00:51 32.88260 -86.79118 34898 ft 482 kts 150°
2026-05-06 00:51 32.82525 -86.74995 34898 ft 482 kts 150°
2026-05-06 00:52 32.76785 -86.70875 34899 ft 482 kts 150°
2026-05-06 00:52 32.71043 -86.66760 34897 ft 482 kts 150°
2026-05-06 00:53 32.65304 -86.62653 34899 ft 482 kts 150°
2026-05-06 00:53 32.59562 -86.58550 34898 ft 482 kts 150°
2026-05-06 00:54 32.53820 -86.54454 34899 ft 482 kts 150°
2026-05-06 00:54 32.48076 -86.50362 34899 ft 482 kts 150°
2026-05-06 00:55 32.42332 -86.46276 34897 ft 482 kts 150°
2026-05-06 00:55 32.36587 -86.42195 34897 ft 482 kts 150°
2026-05-06 00:56 32.30841 -86.38119 34898 ft 481 kts 150°
2026-05-06 00:56 32.25095 -86.34049 34898 ft 481 kts 150°
2026-05-06 00:57 32.19659 -86.29526 34895 ft 483 kts 140°
2026-05-06 00:57 32.14635 -86.24256 34903 ft 483 kts 139°
2026-05-06 00:58 32.09604 -86.18995 34898 ft 483 kts 140°
2026-05-06 00:58 32.04544 -86.13760 34898 ft 483 kts 140°
2026-05-06 00:59 31.99478 -86.08547 34899 ft 483 kts 140°
2026-05-06 00:59 31.94411 -86.03340 34898 ft 483 kts 140°
2026-05-06 01:00 31.89370 -85.98165 34897 ft 484 kts 140°
2026-05-06 01:00 31.84298 -85.92964 34899 ft 483 kts 140°
2026-05-06 01:01 31.79225 -85.87770 34897 ft 483 kts 140°
2026-05-06 01:01 31.74324 -85.82360 34900 ft 484 kts 134°
2026-05-06 01:02 31.69852 -85.76431 34899 ft 485 kts 132°
2026-05-06 01:02 31.65431 -85.70453 34898 ft 485 kts 133°
2026-05-06 01:03 31.60950 -85.64544 34899 ft 485 kts 133°
2026-05-06 01:03 31.56430 -85.58682 34898 ft 484 kts 133°
2026-05-06 01:04 31.51897 -85.52831 34899 ft 484 kts 133°
2026-05-06 01:04 31.47367 -85.46988 34898 ft 484 kts 133°
2026-05-06 01:05 31.42832 -85.41142 34899 ft 484 kts 133°
2026-05-06 01:05 31.38300 -85.35307 34897 ft 484 kts 133°
2026-05-06 01:06 31.33762 -85.29474 34898 ft 484 kts 134°
2026-05-06 01:06 31.29222 -85.23648 34898 ft 484 kts 134°
2026-05-06 01:07 31.24707 -85.17862 34898 ft 484 kts 134°
2026-05-06 01:07 31.20159 -85.12043 34899 ft 484 kts 134°
2026-05-06 01:08 31.15612 -85.06235 34898 ft 484 kts 134°
2026-05-06 01:08 31.11062 -85.00432 34898 ft 484 kts 134°
2026-05-06 01:09 31.06504 -84.94626 34899 ft 484 kts 134°
2026-05-06 01:09 31.01947 -84.88832 34897 ft 484 kts 134°
2026-05-06 01:10 30.97418 -84.83082 34899 ft 484 kts 134°
2026-05-06 01:10 30.92859 -84.77302 34898 ft 484 kts 134°
2026-05-06 01:11 30.88297 -84.71527 34898 ft 484 kts 134°
2026-05-06 01:11 30.83726 -84.65749 34898 ft 484 kts 134°
2026-05-06 01:12 30.79160 -84.59987 34898 ft 484 kts 134°
2026-05-06 01:12 30.74624 -84.54271 34898 ft 484 kts 134°
2026-05-06 01:13 30.70025 -84.48484 34897 ft 484 kts 134°
2026-05-06 01:13 30.65455 -84.42743 34899 ft 484 kts 134°
2026-05-06 01:14 30.58588 -84.34131 34899 ft 484 kts 134°
2026-05-06 01:14 30.54038 -84.28436 34899 ft 484 kts 134°
2026-05-06 01:15 30.49461 -84.22715 34899 ft 484 kts 134°
2026-05-06 01:15 30.44876 -84.16991 34898 ft 484 kts 134°
2026-05-06 01:16 30.40290 -84.11274 34898 ft 484 kts 134°
2026-05-06 01:16 30.35402 -84.05965 34888 ft 481 kts 149°
2026-05-06 01:17 30.29576 -84.02186 34901 ft 480 kts 153°
2026-05-06 01:17 30.23701 -83.98505 34899 ft 480 kts 152°
2026-05-06 01:18 30.17868 -83.94711 34900 ft 481 kts 151°
2026-05-06 01:18 30.12061 -83.90864 34899 ft 481 kts 151°
2026-05-06 01:19 30.06252 -83.87014 34899 ft 482 kts 151°
2026-05-06 01:19 30.00430 -83.83168 34898 ft 482 kts 151°
2026-05-06 01:20 29.94647 -83.79356 34898 ft 482 kts 151°
2026-05-06 01:20 29.88819 -83.75520 34898 ft 481 kts 151°
2026-05-06 01:21 29.83003 -83.71696 34898 ft 481 kts 151°
2026-05-06 01:21 29.77182 -83.67877 34898 ft 481 kts 151°
2026-05-06 01:22 29.71361 -83.64064 34898 ft 481 kts 151°
2026-05-06 01:22 29.65543 -83.60257 34898 ft 481 kts 151°
2026-05-06 01:23 29.59721 -83.56451 34898 ft 481 kts 151°
2026-05-06 01:23 29.53903 -83.52652 34898 ft 481 kts 151°
2026-05-06 01:24 29.48122 -83.48883 34898 ft 481 kts 151°
2026-05-06 01:24 29.42302 -83.45093 34898 ft 481 kts 151°
2026-05-06 01:25 29.36485 -83.41310 34898 ft 481 kts 151°
2026-05-06 01:25 29.30660 -83.37526 34898 ft 481 kts 151°
2026-05-06 01:26 29.24833 -83.33765 34898 ft 481 kts 153°
2026-05-06 01:26 29.18783 -83.30527 34902 ft 480 kts 158°
2026-05-06 01:27 29.12631 -83.27555 34898 ft 480 kts 158°
2026-05-06 01:27 29.06493 -83.24538 34899 ft 480 kts 157°
2026-05-06 01:28 29.00376 -83.21463 34899 ft 480 kts 157°
2026-05-06 01:28 28.94270 -83.18371 34898 ft 480 kts 157°
2026-05-06 01:29 28.88161 -83.15282 34898 ft 480 kts 157°
2026-05-06 01:29 28.82050 -83.12199 34898 ft 480 kts 157°
2026-05-06 01:30 28.75936 -83.09121 34898 ft 480 kts 157°
2026-05-06 01:30 28.69827 -83.06050 34898 ft 480 kts 157°
2026-05-06 01:31 28.63747 -83.02997 34898 ft 480 kts 157°
2026-05-06 01:31 28.57633 -82.99930 34898 ft 480 kts 157°
2026-05-06 01:32 28.51516 -82.96866 34898 ft 480 kts 157°
2026-05-06 01:32 28.45398 -82.93805 34898 ft 480 kts 157°
2026-05-06 01:33 28.39283 -82.90750 34898 ft 480 kts 157°
2026-05-06 01:33 28.33162 -82.87695 34898 ft 480 kts 157°
2026-05-06 01:34 28.27054 -82.84650 34898 ft 480 kts 157°
2026-05-06 01:34 28.20936 -82.81605 34898 ft 480 kts 157°
2026-05-06 01:35 28.14818 -82.78563 34899 ft 480 kts 157°
2026-05-06 01:35 28.08695 -82.75522 34898 ft 480 kts 157°
2026-05-06 01:36 28.03608 -82.72998 34898 ft 480 kts 157°
2026-05-06 01:36 27.97301 -82.70658 34909 ft 477 kts 171°
2026-05-06 01:37 27.89665 -82.69346 34898 ft 478 kts 172°
2026-05-06 01:37 27.84152 -82.68381 34898 ft 478 kts 171°
2026-05-06 01:38 27.77637 -82.67129 34899 ft 478 kts 171°
2026-05-06 01:38 27.71078 -82.65827 34898 ft 478 kts 171°
2026-05-06 01:39 27.64513 -82.64530 34898 ft 479 kts 171°
2026-05-06 01:39 27.57954 -82.63242 34898 ft 479 kts 171°
2026-05-06 01:40 27.51388 -82.61896 34905 ft 479 kts 168°
2026-05-06 01:40 27.44933 -82.60040 34900 ft 479 kts 165°
2026-05-06 01:41 27.38493 -82.58039 34897 ft 479 kts 165°
2026-05-06 01:41 27.32055 -82.56102 34898 ft 479 kts 166°
2026-05-06 01:42 27.25604 -82.54209 34898 ft 479 kts 166°
2026-05-06 01:42 27.19199 -82.52339 34898 ft 479 kts 166°
2026-05-06 01:43 27.12751 -82.50455 34898 ft 479 kts 166°
2026-05-06 01:43 27.06305 -82.48573 34898 ft 479 kts 166°
2026-05-06 01:44 26.99850 -82.46689 34898 ft 479 kts 166°
2026-05-06 01:44 26.93431 -82.44799 34882 ft 469 kts 163°
2026-05-06 01:45 26.90483 -82.43361 34884 ft 457 kts 148°
2026-05-06 01:45 26.88039 -82.41150 34878 ft 453 kts 139°
2026-05-06 01:45 26.85658 -82.38744 34481 ft 465 kts 140°
2026-05-06 01:45 26.83220 -82.36334 34028 ft 467 kts 140°
2026-05-06 01:46 26.80773 -82.33954 33554 ft 464 kts 140°
2026-05-06 01:46 26.78338 -82.31609 33071 ft 460 kts 141°
2026-05-06 01:46 26.75921 -82.29293 32590 ft 456 kts 141°
2026-05-06 01:46 26.73520 -82.26998 32120 ft 452 kts 141°
2026-05-06 01:47 26.71139 -82.24724 31633 ft 448 kts 141°
2026-05-06 01:47 26.68781 -82.22470 31266 ft 441 kts 141°
2026-05-06 01:47 26.66483 -82.20273 30935 ft 433 kts 141°
2026-05-06 01:47 26.64209 -82.18102 30354 ft 434 kts 141°
2026-05-06 01:48 26.61931 -82.15928 29781 ft 424 kts 141°
2026-05-06 01:48 26.59720 -82.13816 29336 ft 414 kts 141°
2026-05-06 01:48 26.57541 -82.11736 28882 ft 411 kts 141°
2026-05-06 01:48 26.55372 -82.09668 28437 ft 409 kts 141°
2026-05-06 01:49 26.53215 -82.07613 27985 ft 406 kts 141°
2026-05-06 01:49 26.51095 -82.05543 27547 ft 404 kts 140°
2026-05-06 01:49 26.48877 -82.03309 27075 ft 401 kts 139°
2026-05-06 01:49 26.46820 -82.01218 26644 ft 399 kts 139°
2026-05-06 01:50 26.44773 -81.99138 26215 ft 396 kts 139°
2026-05-06 01:50 26.42736 -81.97077 25785 ft 394 kts 139°
2026-05-06 01:50 26.40710 -81.95032 25345 ft 392 kts 139°
2026-05-06 01:50 26.38696 -81.93004 24938 ft 389 kts 139°
2026-05-06 01:51 26.36690 -81.90988 24523 ft 387 kts 139°
2026-05-06 01:51 26.34698 -81.88985 24107 ft 384 kts 139°
2026-05-06 01:51 26.32714 -81.86993 23690 ft 382 kts 139°
2026-05-06 01:51 26.30740 -81.85011 23260 ft 380 kts 139°
2026-05-06 01:52 26.28781 -81.83045 22863 ft 378 kts 139°
2026-05-06 01:52 26.26829 -81.81088 22451 ft 376 kts 140°
2026-05-06 01:52 26.24894 -81.79148 22045 ft 373 kts 139°
2026-05-06 01:52 26.23184 -81.76996 21629 ft 372 kts 121°
2026-05-06 01:53 26.22056 -81.74435 21248 ft 366 kts 116°
2026-05-06 01:53 26.20989 -81.71862 20844 ft 365 kts 117°
2026-05-06 01:53 26.19916 -81.69313 20448 ft 363 kts 117°
2026-05-06 01:53 26.18830 -81.66767 20049 ft 362 kts 117°
2026-05-06 01:54 26.17743 -81.64243 19650 ft 361 kts 117°
2026-05-06 01:54 26.16669 -81.61763 19267 ft 360 kts 117°
2026-05-06 01:54 26.15581 -81.59258 18862 ft 359 kts 117°
2026-05-06 01:54 26.14495 -81.56764 18476 ft 358 kts 117°
2026-05-06 01:55 26.13409 -81.54274 18063 ft 357 kts 118°
2026-05-06 01:55 26.12326 -81.51791 17672 ft 356 kts 118°
2026-05-06 01:55 26.11251 -81.49326 17337 ft 353 kts 118°
2026-05-06 01:55 26.10176 -81.46863 16856 ft 354 kts 118°
2026-05-06 01:56 26.09098 -81.44395 16439 ft 354 kts 118°
2026-05-06 01:56 26.08022 -81.41933 16048 ft 354 kts 118°
2026-05-06 01:56 26.06947 -81.39478 15642 ft 353 kts 118°
2026-05-06 01:56 26.05877 -81.37024 15243 ft 352 kts 117°
2026-05-06 01:57 26.04811 -81.34578 14839 ft 351 kts 117°
2026-05-06 01:57 26.03747 -81.32135 14453 ft 350 kts 117°
2026-05-06 01:57 26.02685 -81.29698 14056 ft 350 kts 118°
2026-05-06 01:57 26.01627 -81.27271 13666 ft 349 kts 118°
2026-05-06 01:58 26.00570 -81.24849 13273 ft 348 kts 118°
2026-05-06 01:58 25.99517 -81.22435 12884 ft 347 kts 118°
2026-05-06 01:58 25.98478 -81.20057 12496 ft 346 kts 118°
2026-05-06 01:58 25.97426 -81.17648 12107 ft 345 kts 118°
2026-05-06 01:59 25.96377 -81.15250 11704 ft 344 kts 118°
2026-05-06 01:59 25.95331 -81.12860 11327 ft 343 kts 118°
2026-05-06 01:59 25.94289 -81.10481 10930 ft 342 kts 118°
2026-05-06 01:59 25.93257 -81.08124 10543 ft 333 kts 118°
2026-05-06 02:00 25.92270 -81.05869 10201 ft 317 kts 118°
2026-05-06 02:00 25.91321 -81.03705 10088 ft 308 kts 118°
2026-05-06 02:00 25.90453 -81.01563 9938 ft 300 kts 115°
2026-05-06 02:00 25.89662 -80.99460 9850 ft 290 kts 115°
2026-05-06 02:01 25.88892 -80.97407 9591 ft 286 kts 115°
2026-05-06 02:01 25.88121 -80.95375 9296 ft 284 kts 115°
2026-05-06 02:01 25.87350 -80.93360 8989 ft 283 kts 115°
2026-05-06 02:01 25.86588 -80.91367 8730 ft 278 kts 115°
2026-05-06 02:02 25.85843 -80.89427 8490 ft 275 kts 115°
2026-05-06 02:02 25.85093 -80.87477 8246 ft 274 kts 115°
2026-05-06 02:02 25.84345 -80.85531 8006 ft 274 kts 115°
2026-05-06 02:02 25.83595 -80.83581 7750 ft 275 kts 115°
2026-05-06 02:03 25.82843 -80.81628 7495 ft 276 kts 115°
2026-05-06 02:03 25.82089 -80.79672 7254 ft 276 kts 115°
2026-05-06 02:03 25.81334 -80.77712 6999 ft 276 kts 115°
2026-05-06 02:03 25.80580 -80.75753 6754 ft 276 kts 115°
2026-05-06 02:04 25.79830 -80.73808 6504 ft 271 kts 116°
2026-05-06 02:04 25.79117 -80.71954 6247 ft 251 kts 116°
2026-05-06 02:04 25.78571 -80.70190 5985 ft 237 kts 98°
2026-05-06 02:04 25.78623 -80.68360 5847 ft 240 kts 88°
2026-05-06 02:05 25.78732 -80.66490 5625 ft 244 kts 89°
2026-05-06 02:05 25.78819 -80.64616 5392 ft 242 kts 90°
2026-05-06 02:05 25.78903 -80.62770 5159 ft 236 kts 90°
2026-05-06 02:05 25.78983 -80.60965 4927 ft 234 kts 90°
2026-05-06 02:06 25.79061 -80.59165 4659 ft 234 kts 90°
2026-05-06 02:06 25.79138 -80.57359 4389 ft 235 kts 90°
2026-05-06 02:06 25.79216 -80.55548 4114 ft 235 kts 90°
2026-05-06 02:06 25.79294 -80.53734 3842 ft 236 kts 90°
2026-05-06 02:07 25.79372 -80.51913 3556 ft 236 kts 90°
2026-05-06 02:07 25.79450 -80.50114 3269 ft 231 kts 90°
2026-05-06 02:07 25.79525 -80.48357 2987 ft 224 kts 90°
2026-05-06 02:07 25.79598 -80.46653 2722 ft 217 kts 90°
2026-05-06 02:08 25.79669 -80.45022 2539 ft 206 kts 90°
2026-05-06 02:08 25.79735 -80.43484 2307 ft 194 kts 90°
2026-05-06 02:08 25.79796 -80.42041 2058 ft 185 kts 91°
2026-05-06 02:08 25.79855 -80.40610 1842 ft 185 kts 91°
2026-05-06 02:09 25.79915 -80.39197 1617 ft 178 kts 91°
2026-05-06 02:09 25.79971 -80.37876 1530 ft 166 kts 91°
2026-05-06 02:09 25.80025 -80.36589 1319 ft 172 kts 91°
2026-05-06 02:09 25.80080 -80.35281 1043 ft 166 kts 91°
2026-05-06 02:10 25.80131 -80.34004 871 ft 167 kts 91°
2026-05-06 02:10 25.80187 -80.32711 515 ft 169 kts 91°
2026-05-06 02:10 25.80256 -80.31486 269 ft 153 kts 87°
2026-05-06 02:10 25.80298 -80.30274 127 ft 165 kts 92°
2026-05-06 02:11 25.80316 -80.29027 21 ft 152 kts 87°
2026-05-06 02:11 25.80371 -80.28083 20 ft 69 kts 88°
2026-05-06 02:11 25.80382 -80.27823 20 ft 21 kts 86°
2026-05-06 02:11 25.80396 -80.27716 24 ft 21 kts 75°
2026-05-06 02:12 25.80496 -80.27758 23 ft 21 kts 265°
2026-05-06 02:12 25.80493 -80.27922 20 ft 21 kts 267°
2026-05-06 02:12 25.80486 -80.28030 20 ft 21 kts 266°
2026-05-06 02:12 25.80481 -80.28194 20 ft 21 kts 268°
2026-05-06 02:13 25.80474 -80.28357 20 ft 21 kts 267°
2026-05-06 02:13 25.80467 -80.28521 19 ft 21 kts 267°
2026-05-06 02:13 25.80459 -80.28684 20 ft 21 kts 267°
2026-05-06 02:13 25.80455 -80.28848 19 ft 21 kts 268°
2026-05-06 02:14 25.80450 -80.29012 19 ft 21 kts 268°
2026-05-06 02:14 25.80445 -80.29175 20 ft 21 kts 267°
2026-05-06 02:14 25.80436 -80.29325 20 ft 16 kts 265°
2026-05-06 02:14 25.80502 -80.29385 21 ft 0 kts 355°
2026-05-06 02:15 25.80508 -80.29386 20 ft 0 kts 354°
2026-05-06 02:15 25.80512 -80.29386 19 ft 0 kts 354°